Terminal Aerodrome Forecast
Issued by NWS Charleston, WV

Current Version | Previous Version | Graphics & Text | Print | Product List | Glossary On
Versions: 1 2 3 4 5 6 7 8 9 10 11 12 13 14 15 16 17 18 19 20 21 22 23 24 25
000
FTUS41 KRLX 021721
TAFHTS
TAF
KHTS 021721Z 0218/0318 26007KT P6SM OVC025
     FM030500 28004KT P6SM BKN035=

USA.gov is the U.S. government's official web portal to all federal, state and local government web resources and services.